Dallas Love, TX

3:47 AM CDT on March 24, 2017 (GMT -0500)
Dallas Love

Weather History for KDAL - June, 2010

Change the Weather History Date:

Thursday, June 10, 2010

  Actual Average Record
Temperature  
Mean Temperature 82 °F -  
Max Temperature 93 °F 87 °F 100 °F (2006)
Min Temperature 73 °F 69 °F 66 °F (2014)
Cooling Degree Days 17    
Growing Degree Days 32 (Base 50)    
Moisture  
Dew Point 72 °F    
Average Humidity 75    
Maximum Humidity 94    
Minimum Humidity 55    
Precipitation  
Precipitation 0.01 in - - ()
Sea Level Pressure  
Sea Level Pressure 29.83 in    
Wind  
Wind Speed 10 mph (SSE)    
Max Wind Speed 21 mph    
Max Gust Speed 28 mph    
Visibility 9 miles    
Events Rain    
Averages and records for this station are not official NWS values.
T = Trace of Precipitation, MM = Missing Value Source: NWS Daily Summary

Daily Weather History Graph

Daily Weather History Graph

Search for Another Location

Airport or City:

Trip Planner

Search our weather history database for the weather conditions in past years. The results will help you decide how hot, cold, wet, or windy it might be!

Date:

Astronomy

Jun. 10, 2010 Rise Set
Actual Time 6:18 AM CDT 8:35 PM CDT
Civil Twilight 5:50 AM CDT 9:03 PM CDT
Nautical Twilight 5:15 AM CDT 9:38 PM CDT
Astronomical Twilight 4:37 AM CDT 10:16 PM CDT
Moon 4:29 AM CDT (6/10) 7:08 PM CDT (6/10)
Length of Visible Light 15h 13m
Length of Day
14h 16m
Waning Crescent, 4% of the Moon is Illuminated
Jun 10
Waning Crescent
Jun 12
New
Jun 18
First Quarter
Jun 26
Full
Jul 4
Last Quarter

Hourly Weather History & Observations

Time (CDT) Temp. Heat Index Dew Point Humidity Pressure Visibility Wind Dir Wind Speed Gust Speed Precip Events Conditions
12:06 AM 75.2 °F - 69.8 °F 83% 29.91 in 10.0 mi South 9.2 mph - N/A   Mostly Cloudy
12:53 AM 75.0 °F - 70.0 °F 84% 29.89 in 10.0 mi SE 6.9 mph - N/A   Overcast
1:53 AM 75.0 °F - 69.1 °F 82% 29.88 in 10.0 mi SE 9.2 mph - N/A   Overcast
2:53 AM 75.0 °F - 69.1 °F 82% 29.86 in 10.0 mi SE 10.4 mph - N/A   Overcast
3:09 AM 75.2 °F - 69.8 °F 83% 29.88 in 10.0 mi SE 10.4 mph - 0.00 in Rain Light Rain
3:36 AM 73.4 °F - 69.8 °F 88% 29.87 in 10.0 mi ESE 6.9 mph - 0.00 in   Overcast
3:53 AM 73.9 °F - 70.0 °F 87% 29.85 in 10.0 mi ESE 8.1 mph - 0.00 in   Overcast
4:36 AM 73.4 °F - 69.8 °F 88% 29.86 in 10.0 mi ESE 8.1 mph - N/A   Overcast
4:53 AM 73.9 °F - 70.0 °F 87% 29.85 in 9.0 mi ESE 6.9 mph - N/A   Overcast
5:51 AM 73.4 °F - 71.6 °F 94% 29.87 in 8.0 mi ESE 5.8 mph - N/A   Overcast
5:53 AM 73.9 °F - 71.1 °F 91% 29.85 in 6.0 mi ESE 5.8 mph - N/A   Overcast
6:53 AM 73.9 °F - 72.0 °F 93% 29.86 in 4.0 mi ESE 8.1 mph - N/A   Overcast
7:53 AM 75.0 °F - 72.0 °F 90% 29.85 in 6.0 mi SE 9.2 mph - N/A   Overcast
8:53 AM 75.9 °F - 72.0 °F 87% 29.86 in 10.0 mi SSE 9.2 mph - 0.00 in   Overcast
8:58 AM 75.2 °F - 71.6 °F 89% 29.88 in 10.0 mi SSE 10.4 mph - N/A   Overcast
9:22 AM 77.0 °F - 71.6 °F 83% 29.88 in 10.0 mi SSE 9.2 mph - N/A   Overcast
9:45 AM 78.8 °F - 71.6 °F 78% 29.88 in 10.0 mi SSE 10.4 mph - N/A   Overcast
9:53 AM 78.1 °F - 72.0 °F 81% 29.86 in 10.0 mi South 10.4 mph - N/A   Overcast
10:50 AM 80.6 °F 84.6 °F 71.6 °F 74% 29.86 in 10.0 mi South 6.9 mph - 0.01 in   Mostly Cloudy
10:53 AM 81.0 °F 85.2 °F 72.0 °F 74% 29.84 in 10.0 mi SSW 6.9 mph - 0.01 in   Mostly Cloudy
11:26 AM 82.4 °F 87.2 °F 71.6 °F 70% 29.85 in 10.0 mi SW 10.4 mph 18.4 mph N/A   Overcast
11:53 AM 84.0 °F 90.2 °F 73.0 °F 69% 29.83 in 10.0 mi SSW 8.1 mph - N/A   Overcast
12:53 PM 84.9 °F 91.4 °F 73.0 °F 67% 29.82 in 10.0 mi South 9.2 mph - N/A   Mostly Cloudy
1:21 PM 87.8 °F 95.6 °F 73.4 °F 62% 29.83 in 10.0 mi South 11.5 mph - N/A   Overcast
1:40 PM 86.0 °F 93.4 °F 73.4 °F 66% 29.83 in 9.0 mi South 13.8 mph 19.6 mph N/A   Overcast
1:53 PM 88.0 °F 97.5 °F 75.0 °F 65% 29.80 in 8.0 mi South 11.5 mph 16.1 mph N/A   Overcast
2:29 PM 89.6 °F 99.8 °F 75.2 °F 62% 29.81 in 8.0 mi SSE 11.5 mph - N/A   Mostly Cloudy
2:53 PM 89.1 °F 99.1 °F 75.0 °F 63% 29.79 in 8.0 mi South 13.8 mph - N/A   Mostly Cloudy
3:53 PM 91.0 °F 101.6 °F 75.0 °F 59% 29.77 in 8.0 mi South 10.4 mph 20.7 mph N/A   Overcast
4:53 PM 91.0 °F 100.4 °F 73.9 °F 57% 29.75 in 8.0 mi South 18.4 mph 24.2 mph N/A   Overcast
5:53 PM 91.9 °F 101.3 °F 73.9 °F 55% 29.73 in 7.0 mi South 16.1 mph 24.2 mph N/A   Scattered Clouds
6:53 PM 91.0 °F 99.3 °F 73.0 °F 55% 29.72 in 7.0 mi SSW 11.5 mph 21.9 mph N/A   Scattered Clouds
7:53 PM 90.0 °F 99.0 °F 73.9 °F 59% 29.72 in 7.0 mi South 15.0 mph - N/A   Partly Cloudy
8:53 PM 88.0 °F 95.6 °F 73.0 °F 61% 29.72 in 6.0 mi South 11.5 mph - N/A   Haze
9:53 PM 87.1 °F 95.4 °F 73.9 °F 65% 29.74 in 7.0 mi South 16.1 mph - N/A   Clear
10:53 PM 84.9 °F 92.1 °F 73.9 °F 69% 29.76 in 8.0 mi South 19.6 mph 27.6 mph N/A   Clear
11:53 PM 82.9 °F 88.8 °F 73.0 °F 72% 29.78 in 10.0 mi South 20.7 mph 26.5 mph N/A   Partly Cloudy